Temp
62 62 62 62 62 62 62 63 63 63 63 63 63 63 63 63 62 63 68 80 76 74 76 80 80 79 76 72 71 67 58 54 57 63 63 69 68 71 76 74 75 75 72 73 74
61 61 61 62 62 62 62 62 62 63 63 63 63 63 63 63 63 70 81 77 75 75 77 75 76 77 71 68 70 67 56 59 68 66 67 69 72 73 73 73 68 68 72 75 75
61 61 61 62 62 62 62 62 62 63 63 63 63 63 62 61 67 76 81 77 75 77 77 77 75 72 64 65 65 62 63 67 74 69 71 71 71 73 71 65 70 65 68 74 73
61 61 61 61 62 61 61 62 62 63 63 63 62 63 63 64 60 78 81 76 75 79 76 75 73 65 62 61 65 60 67 72 72 70 71 71 72 67 67 66 75 75 74 72 69
60 61 61 61 61 61 61 61 61 62 61 62 62 63 67 68 71 85 81 76 78 78 76 73 68 63 61 66 66 63 68 71 74 71 71 73 66 66 66 72 74 75 73 69 67
60 60 60 60 60 60 60 59 59 59 60 61 63 63 69 65 82 87 85 82 81 77 77 73 70 71 66 66 65 69 67 68 66 69 70 67 67 67 66 72 71 70 68 68 68
59 59 59 60 60 60 60 59 59 60 61 63 65 73 68 74 84 83 80 79 82 84 78 80 79 74 69 68 70 69 66 65 65 65 67 73 65 62 69 70 67 67 67 67 68
59 59 59 59 60 60 60 59 60 61 63 64 67 69 69 84 79 82 80 86 88 83 83 84 79 72 67 68 70 64 61 55 65 71 68 67 55 64 68 67 64 66 66 66 66
58 58 58 59 59 59 59 59 61 63 65 66 65 68 70 84 83 88 86 84 85 84 83 91 78 69 69 61 58 58 53 54 64 67 66 63 58 65 67 66 63 64 64 65 63
58 57 57 58 59 59 58 59 65 66 72 75 80 68 75 79 85 87 86 85 81 81 79 76 67 63 60 58 50 52 53 54 57 66 62 57 59 65 66 66 63 62 63 63 63
58 57 57 58 59 58 62 69 71 68 69 71 72 74 79 85 86 83 86 85 81 75 64 67 63 57 58 60 63 61 58 57 61 67 61 59 60 63 63 61 60 60 60 60 61
58 57 57 58 58 58 59 67 72 74 66 77 76 77 82 83 77 83 85 75 72 64 65 63 57 64 68 66 64 61 56 54 61 65 61 56 59 60 60 58 61 61 59 60 59
57 57 57 58 57 60 65 72 74 72 62 73 77 77 79 81 77 77 81 74 70 66 61 59 62 71 69 63 63 56 56 55 56 61 59 56 54 56 60 61 61 60 61 60 61
57 57 57 57 64 65 69 77 72 74 54 65 71 79 81 79 73 84 82 77 71 63 63 62 67 68 64 63 61 52 62 61 59 54 47 55 43 50 52 55 58 59 57 59 61
57 57 56 56 66 69 77 72 68 72 44 69 73 82 77 76 76 77 83 78 67 67 66 62 63 61 62 62 64 59 63 59 57 50 45 50 43 47 52 52 53 55 58 59 57
57 57 56 63 63 70 72 69 73 54 46 66 74 72 71 72 74 77 77 79 74 67 66 61 69 66 64 66 65 64 59 53 47 44 39 45 44 43 47 51 54 58 60 61 59
57 56 56 71 71 71 71 68 53 46 67 64 66 68 68 67 70 71 68 64 60 54 53 62 62 67 69 61 62 59 48 38 38 36 38 48 44 45 54 56 59 59 58 57 56
56 54 59 73 67 72 68 60 43 60 62 72 71 68 65 68 68 69 64 59 64 60 52 51 51 62 68 61 54 51 48 38 33 32 38 47 39 47 57 58 60 59 57 56 55
54 63 65 68 71 69 62 48 51 59 69 68 68 61 60 66 66 65 59 59 61 59 53 50 53 65 66 65 62 52 45 50 41 38 36 40 47 55 56 56 56 55 57 55 54
58 62 66 71 71 66 56 50 57 68 72 69 58 62 56 60 60 59 57 62 63 65 60 55 48 60 65 65 62 54 57 44 39 33 33 38 41 43 51 53 53 52 50 50 49
59 63 72 72 72 61 51 52 62 72 71 66 62 60 59 59 60 56 57 62 65 64 62 55 49 53 58 54 53 52 48 44 43 39 33 32 38 48 50 51 50 48 49 48 48
54 57 71 72 60 50 52 60 64 72 72 70 67 64 60 60 58 57 58 61 65 64 56 53 47 43 52 59 58 55 50 47 35 39 36 35 38 50 49 51 52 51 51 48 50
50 51 66 70 53 51 57 65 68 68 68 66 64 65 63 58 53 57 59 64 64 61 56 54 44 34 45 50 56 52 54 49 43 39 36 31 38 53 52 51 50 48 48 52 50
52 52 57 58 56 53 54 59 62 70 69 68 65 65 60 56 57 55 57 62 63 61 60 56 44 43 38 45 48 48 52 51 46 31 38 39 42 47 47 48 48 46 49 49 48
51 50 52 50 54 52 52 58 60 60 67 65 60 63 59 51 53 53 56 57 61 60 55 52 46 45 49 51 52 51 52 52 47 46 41 45 44 47 48 48 48 49 48 48 50
50 48 50 50 52 54 51 51 57 59 61 60 59 64 60 55 57 54 56 53 54 54 50 48 44 44 46 53 52 50 53 52 51 50 47 46 43 49 49 48 48 49 49 49 49
49 51 50 48 50 51 51 55 57 58 63 66 65 60 59 62 64 59 57 57 57 54 49 48 44 40 38 48 48 40 50 51 51 51 48 41 46 48 47 49 47 47 48 48 48
MSLP
1017.52 1017.38 1017.19 1016.96 1016.79 1016.65 1016.44 1016.23 1015.99 1015.68 1015.43 1015.18 1014.83 1014.52 1014.25 1013.95 1013.43 1013.36 1012.47 1010.51 1010.44 1010.60 1010.51 1010.40 1010.19 1010.27 1010.24 1010.78 1010.97 1011.73 1012.80 1012.98 1012.46 1011.57 1011.74 1011.77 1012.07 1012.53 1012.31 1013.44 1013.75 1013.99 1014.61 1015.55 1016.14
1017.39 1017.16 1016.99 1016.82 1016.66 1016.51 1016.31 1016.08 1015.86 1015.58 1015.31 1014.99 1014.61 1014.29 1014.06 1013.90 1013.54 1012.30 1009.86 1009.81 1010.35 1010.44 1010.49 1010.57 1010.55 1010.55 1010.72 1010.93 1011.06 1011.47 1012.61 1011.95 1011.37 1011.01 1011.02 1011.47 1011.74 1012.40 1012.69 1014.05 1015.22 1015.36 1015.82 1016.02 1016.28
1017.28 1017.05 1016.89 1016.72 1016.54 1016.34 1016.15 1015.98 1015.80 1015.54 1015.20 1014.81 1014.43 1014.07 1013.75 1013.73 1013.04 1010.62 1009.19 1009.54 1010.14 1010.38 1010.57 1010.53 1010.53 1010.67 1010.99 1011.10 1011.08 1011.25 1011.46 1011.26 1010.86 1010.64 1010.65 1011.37 1012.15 1012.52 1013.16 1014.39 1014.64 1015.47 1016.04 1016.17 1016.55
1017.10 1016.93 1016.75 1016.61 1016.38 1016.18 1016.02 1015.91 1015.74 1015.50 1015.06 1014.71 1014.24 1013.88 1013.48 1013.38 1012.18 1009.69 1009.12 1009.49 1010.03 1010.36 1010.65 1010.51 1010.60 1010.69 1010.93 1011.13 1010.85 1011.04 1010.57 1010.58 1011.08 1011.21 1011.19 1011.83 1012.46 1013.72 1014.02 1014.39 1014.66 1014.97 1015.29 1016.06 1016.87
1016.98 1016.83 1016.68 1016.50 1016.24 1016.07 1015.91 1015.75 1015.60 1015.34 1014.88 1014.57 1014.06 1013.75 1013.31 1012.71 1011.22 1009.08 1009.41 1009.96 1010.30 1010.62 1010.47 1010.33 1010.46 1010.69 1010.86 1010.76 1010.49 1010.48 1010.30 1010.57 1010.73 1011.29 1011.44 1012.32 1013.70 1014.36 1015.15 1015.15 1014.83 1015.15 1015.86 1016.51 1016.99
1016.96 1016.76 1016.59 1016.34 1016.12 1015.91 1015.66 1015.45 1015.30 1015.06 1014.68 1014.40 1013.98 1013.81 1013.38 1012.07 1009.58 1009.30 1009.14 1009.90 1010.10 1010.14 1010.05 1010.19 1010.13 1010.28 1010.54 1010.45 1010.52 1010.48 1010.64 1010.95 1011.45 1011.35 1011.59 1012.69 1014.23 1014.32 1016.25 1015.94 1015.74 1015.61 1016.48 1016.89 1017.20
1016.86 1016.64 1016.47 1016.22 1015.98 1015.67 1015.33 1015.01 1014.79 1014.63 1014.41 1014.17 1013.90 1013.69 1013.13 1011.01 1009.50 1009.37 1009.47 1009.23 1009.17 1009.48 1009.68 1009.62 1009.75 1010.13 1010.49 1010.65 1010.57 1010.62 1011.17 1011.60 1011.82 1011.79 1011.98 1012.35 1014.36 1015.39 1016.05 1016.52 1016.46 1016.99 1017.33 1017.87 1018.03
1016.75 1016.56 1016.27 1016.02 1015.74 1015.42 1015.02 1014.58 1014.21 1014.09 1013.96 1013.91 1013.85 1013.52 1012.20 1009.82 1009.57 1009.46 1009.19 1008.95 1008.57 1008.77 1009.13 1009.10 1009.29 1009.87 1010.47 1010.72 1011.10 1011.52 1011.83 1012.27 1011.70 1011.65 1011.95 1012.65 1014.64 1016.01 1016.55 1016.89 1017.15 1017.75 1017.85 1018.17 1018.39
1016.65 1016.39 1016.09 1015.77 1015.50 1015.19 1014.71 1014.15 1013.69 1013.55 1013.54 1013.71 1013.76 1013.13 1011.61 1009.64 1009.37 1008.78 1008.88 1009.01 1008.75 1008.76 1008.81 1009.00 1009.50 1010.62 1011.04 1011.80 1012.52 1012.95 1013.15 1012.91 1012.20 1012.25 1012.46 1013.08 1014.77 1016.20 1016.84 1017.36 1017.16 1018.11 1018.36 1018.62 1018.91
1016.50 1016.26 1015.95 1015.62 1015.33 1014.96 1014.29 1013.67 1013.12 1013.12 1013.28 1013.48 1013.14 1013.11 1011.22 1010.16 1009.34 1008.74 1008.57 1008.67 1008.94 1009.13 1009.59 1010.03 1010.83 1011.68 1012.54 1012.83 1013.97 1014.09 1013.80 1013.62 1013.23 1012.94 1012.80 1013.52 1014.40 1015.50 1016.44 1017.11 1017.09 1018.07 1018.66 1018.94 1019.03
1016.35 1016.06 1015.79 1015.54 1015.23 1015.02 1014.08 1013.36 1013.58 1013.51 1013.07 1012.72 1012.35 1011.86 1010.85 1009.86 1009.16 1008.78 1008.65 1008.79 1009.25 1009.82 1010.72 1011.36 1012.01 1012.93 1013.27 1013.25 1013.55 1013.90 1014.01 1013.87 1013.46 1013.22 1013.38 1013.88 1014.29 1015.11 1016.26 1017.28 1017.49 1018.16 1018.60 1018.90 1018.90
1016.17 1015.86 1015.62 1015.35 1015.14 1015.04 1014.85 1014.14 1013.32 1013.24 1012.83 1011.72 1011.64 1011.35 1010.48 1010.13 1009.87 1008.89 1008.68 1009.40 1009.94 1010.76 1011.31 1012.01 1012.74 1012.92 1013.31 1013.60 1013.79 1014.03 1014.30 1014.45 1014.09 1013.82 1013.76 1014.28 1014.74 1015.73 1016.40 1017.15 1017.25 1017.69 1018.60 1018.90 1019.12
1016.07 1015.75 1015.51 1015.19 1014.95 1014.96 1014.67 1013.50 1013.13 1013.09 1013.10 1011.72 1010.88 1010.39 1009.81 1009.84 1009.64 1009.26 1009.20 1009.70 1010.42 1011.09 1011.86 1012.29 1012.85 1012.90 1012.95 1013.67 1013.95 1014.36 1014.58 1014.73 1015.00 1014.72 1014.64 1014.95 1015.54 1015.99 1016.86 1017.43 1018.10 1018.52 1018.47 1018.81 1018.84
1015.99 1015.62 1015.35 1014.95 1015.02 1014.72 1013.92 1012.60 1012.79 1012.84 1013.31 1011.88 1010.45 1009.30 1009.30 1009.40 1009.61 1009.23 1009.25 1009.88 1010.77 1011.62 1012.13 1012.75 1012.84 1012.84 1013.26 1013.64 1014.01 1014.48 1014.55 1014.96 1015.35 1015.89 1016.25 1016.25 1017.36 1017.13 1017.54 1017.82 1018.28 1018.61 1018.87 1018.94 1018.84
1015.87 1015.49 1015.20 1014.96 1014.82 1014.38 1013.33 1012.68 1012.56 1012.85 1013.27 1011.22 1009.81 1008.67 1009.02 1009.77 1009.81 1009.52 1009.42 1009.92 1010.98 1011.80 1012.57 1013.07 1013.09 1013.23 1013.51 1013.85 1014.03 1014.68 1014.87 1015.63 1016.09 1016.86 1017.52 1017.72 1018.29 1018.03 1017.94 1018.30 1018.50 1018.80 1018.95 1019.04 1019.16
1015.65 1015.31 1015.17 1014.95 1014.77 1013.66 1012.94 1012.56 1012.89 1014.00 1012.63 1010.88 1009.66 1009.30 1009.75 1009.97 1009.99 1009.92 1010.03 1010.23 1011.13 1012.16 1012.91 1013.27 1012.96 1013.17 1013.37 1013.89 1014.32 1014.92 1015.62 1016.70 1017.75 1018.48 1019.30 1019.06 1019.00 1018.93 1018.50 1018.39 1018.55 1018.70 1018.88 1019.21 1019.26
1015.18 1014.95 1014.90 1014.18 1013.93 1013.25 1012.83 1013.57 1014.48 1014.33 1012.46 1011.19 1010.35 1010.09 1010.16 1010.64 1010.69 1010.72 1011.06 1011.57 1012.30 1013.25 1013.94 1013.99 1013.81 1013.46 1013.35 1014.02 1014.72 1015.57 1017.23 1018.91 1019.96 1020.53 1020.55 1019.61 1019.38 1019.10 1018.29 1018.06 1018.09 1018.56 1019.09 1019.35 1019.55
1014.66 1014.53 1014.29 1013.50 1013.35 1013.24 1013.88 1014.92 1015.07 1013.84 1012.57 1011.19 1010.60 1010.54 1010.94 1010.95 1011.20 1011.48 1012.12 1012.93 1013.22 1013.82 1014.73 1014.98 1014.68 1014.17 1013.82 1014.41 1015.36 1016.76 1018.19 1019.96 1021.40 1022.33 1021.51 1020.13 1019.83 1018.82 1018.20 1018.15 1018.23 1018.72 1019.21 1019.62 1019.75
1014.48 1014.28 1014.24 1013.13 1013.13 1013.67 1014.89 1015.85 1015.00 1013.99 1012.47 1011.56 1010.93 1011.09 1011.32 1011.29 1011.58 1012.22 1013.17 1013.83 1014.11 1014.27 1014.96 1015.51 1015.34 1014.70 1014.50 1014.73 1015.65 1017.17 1018.52 1019.66 1021.14 1022.51 1022.49 1021.19 1019.95 1018.89 1018.44 1018.83 1019.03 1019.38 1019.60 1019.93 1020.31
1015.65 1015.07 1014.14 1012.99 1013.00 1014.32 1015.83 1015.89 1014.78 1013.24 1012.22 1011.51 1011.64 1011.79 1012.11 1012.23 1012.30 1012.85 1013.75 1014.36 1014.46 1014.69 1014.93 1016.03 1016.21 1015.80 1015.27 1015.33 1016.00 1016.86 1018.34 1019.91 1021.54 1022.92 1023.11 1021.90 1020.79 1019.67 1019.15 1019.32 1019.62 1019.88 1020.17 1020.41 1020.50
1016.09 1015.39 1013.78 1013.06 1013.16 1015.13 1016.37 1015.66 1014.25 1012.58 1012.02 1011.52 1011.74 1012.19 1012.62 1012.78 1013.03 1013.78 1014.50 1014.74 1014.71 1015.27 1015.41 1016.39 1017.19 1017.24 1016.68 1016.54 1016.87 1017.59 1018.72 1020.50 1021.84 1023.08 1023.41 1023.04 1021.32 1019.95 1019.28 1019.44 1019.97 1020.26 1020.47 1020.60 1020.75
1017.46 1016.61 1013.98 1013.31 1014.88 1016.11 1016.21 1015.05 1013.69 1012.45 1011.56 1011.36 1011.54 1012.11 1012.71 1013.21 1013.87 1014.37 1014.77 1014.83 1015.01 1015.44 1016.40 1017.34 1018.23 1018.69 1018.12 1017.25 1017.33 1017.71 1018.64 1020.02 1022.19 1023.23 1023.60 1023.15 1021.29 1020.17 1019.93 1019.96 1020.23 1020.38 1020.51 1020.84 1021.16
1019.23 1017.75 1014.65 1014.19 1016.05 1016.76 1015.96 1014.94 1013.82 1012.64 1011.75 1011.62 1011.90 1012.25 1012.84 1013.55 1014.45 1014.89 1015.21 1015.45 1015.53 1016.09 1016.92 1017.76 1019.30 1019.79 1019.00 1018.52 1017.80 1018.29 1018.87 1020.05 1021.53 1022.52 1023.05 1023.13 1021.47 1020.58 1020.45 1020.42 1020.51 1020.80 1021.07 1021.36 1021.51
1019.75 1018.97 1017.20 1016.56 1017.15 1017.05 1016.57 1015.39 1013.97 1012.40 1011.99 1011.84 1012.25 1012.56 1013.26 1013.95 1014.40 1015.35 1015.82 1016.17 1016.23 1016.82 1017.49 1018.02 1019.93 1020.47 1020.64 1019.78 1019.49 1019.35 1019.24 1019.73 1020.82 1022.20 1022.29 1021.99 1021.00 1020.87 1020.86 1020.83 1021.03 1021.29 1021.35 1021.59 1021.71
1020.34 1020.33 1019.72 1019.28 1018.36 1017.94 1017.20 1016.12 1015.00 1013.84 1012.78 1012.41 1012.70 1012.91 1013.60 1014.47 1014.89 1015.64 1016.29 1016.75 1017.10 1017.51 1018.15 1018.95 1020.35 1020.72 1020.37 1019.94 1019.69 1019.37 1019.15 1019.33 1020.10 1020.45 1021.33 1020.52 1020.62 1020.35 1020.67 1020.91 1021.13 1021.22 1021.44 1021.70 1021.82
1021.03 1020.98 1020.38 1019.82 1019.09 1018.31 1017.79 1017.22 1016.26 1015.31 1014.13 1013.28 1013.18 1013.30 1013.69 1014.39 1014.81 1015.80 1016.33 1016.97 1017.34 1018.07 1018.68 1019.74 1020.62 1020.99 1020.81 1019.99 1019.66 1019.32 1018.79 1018.55 1018.74 1019.04 1019.84 1020.06 1020.14 1020.07 1020.44 1020.78 1021.18 1021.37 1021.64 1021.82 1021.96
1021.64 1021.27 1020.97 1020.49 1019.60 1018.93 1018.58 1017.71 1016.82 1016.21 1014.40 1013.81 1013.37 1013.70 1014.07 1014.13 1014.36 1014.97 1015.59 1016.12 1016.70 1017.78 1019.27 1020.33 1021.32 1022.04 1021.66 1020.81 1020.02 1019.12 1018.13 1017.97 1018.14 1018.53 1019.09 1020.04 1019.89 1020.09 1020.63 1020.97 1021.21 1021.50 1021.70 1021.75 1021.78
Wind_Speed
6 6 6 6 7 7 7 7 8 8 9 10 11 11 11 12 11 0 4 10 4 5 2 6 4 6 4 4 2 4 6 3 5 4 5 7 6 2 1 9 6 5 5 8 12
6 6 6 7 7 8 8 8 8 9 10 11 12 12 10 9 2 6 12 8 6 6 1 2 4 6 3 1 2 6 4 5 5 3 7 5 8 9 4 11 6 13 13 12 11
6 7 7 7 8 9 9 9 9 9 10 11 13 12 10 5 3 7 5 9 9 6 1 1 0 2 2 4 1 4 7 5 6 1 5 7 4 2 9 6 5 18 14 13 5
6 7 7 8 9 9 10 9 8 9 11 12 13 11 12 1 1 4 3 8 10 6 1 0 4 3 3 3 3 1 4 5 4 4 6 7 5 7 5 5 12 16 15 8 8
6 7 7 8 9 10 10 9 8 9 11 11 13 11 3 5 8 6 3 9 6 3 2 1 3 2 2 5 2 2 3 4 6 7 9 12 8 11 12 10 14 16 12 11 9
6 6 7 8 9 10 11 9 8 8 10 10 12 9 2 4 3 7 5 5 4 4 2 3 2 4 3 4 3 2 1 4 4 8 6 19 12 8 1 9 15 19 15 11 11
6 7 8 8 9 10 11 10 10 9 10 10 10 3 1 12 4 8 4 4 4 5 2 4 5 3 2 5 4 2 5 2 2 2 4 11 6 9 12 8 15 14 14 11 9
7 7 7 8 9 11 12 12 12 10 10 8 5 1 6 6 2 8 0 6 6 3 5 5 4 1 1 2 8 6 7 3 5 7 3 5 5 13 11 14 15 12 13 13 10
8 8 8 8 9 11 13 15 15 10 7 4 0 2 9 11 2 5 6 3 4 2 3 2 5 3 5 4 6 9 2 4 9 3 1 2 6 14 10 13 17 12 11 11 9
8 8 8 8 9 11 15 9 5 6 3 3 1 3 5 5 6 3 3 1 1 4 7 8 6 5 6 7 1 1 3 2 4 7 3 1 5 18 14 14 16 13 11 11 11
10 8 8 8 8 9 9 5 6 5 3 6 4 4 5 5 5 2 3 5 4 7 2 5 7 4 4 2 5 6 5 4 2 5 2 4 7 16 11 6 12 11 10 8 9
12 9 8 8 7 6 1 2 4 5 6 6 5 6 6 3 5 5 1 3 4 3 2 7 3 3 9 6 8 8 4 3 5 3 3 1 5 6 8 5 11 14 9 9 5
12 10 8 8 6 1 1 5 2 3 2 8 5 4 5 7 4 3 2 2 4 7 4 7 1 4 7 5 7 3 4 3 4 6 3 2 6 3 4 5 6 3 5 5 11
12 10 9 10 2 3 4 5 6 5 6 7 3 7 4 4 2 2 2 4 6 2 2 4 2 6 5 4 4 1 3 2 4 5 2 4 5 5 5 4 6 6 3 5 6
12 10 8 2 2 1 4 9 0 7 3 2 3 0 3 7 4 2 1 5 4 2 7 4 5 2 7 3 0 4 1 3 2 2 3 7 4 7 2 4 3 3 3 4 1
13 9 4 1 1 5 8 5 6 8 3 3 5 4 5 1 1 1 3 5 2 5 4 2 2 3 4 2 3 2 5 6 5 3 3 2 4 6 2 2 3 3 4 5 6
18 9 3 1 3 4 5 6 7 4 4 2 4 2 5 4 3 3 2 4 3 4 4 7 4 5 1 2 2 8 8 6 7 7 4 6 5 8 5 3 6 8 6 5 4
22 2 5 4 2 5 5 7 2 4 5 6 4 4 6 5 6 5 4 2 6 4 3 4 5 3 2 2 2 3 6 7 2 1 6 5 2 6 4 1 3 5 6 3 2
16 3 2 4 6 4 7 4 7 5 4 5 4 4 2 2 5 4 4 2 1 1 6 4 3 3 2 2 4 2 2 4 6 2 2 3 3 6 2 3 4 4 4 5 7
3 3 3 2 6 7 6 5 4 5 5 2 3 2 3 4 2 5 2 2 1 3 2 3 1 2 3 3 3 2 5 3 4 0 4 5 4 6 6 7 5 4 3 4 2
5 5 4 0 4 7 3 6 5 8 3 2 3 2 1 3 4 3 1 2 1 2 5 4 4 5 2 2 4 3 2 7 5 5 6 3 7 4 6 5 7 3 1 0 2
3 3 4 3 5 1 2 5 5 7 5 3 5 3 2 2 4 3 4 3 2 2 3 2 5 2 7 6 3 4 4 5 7 4 1 3 8 5 5 6 6 2 2 1 4
2 3 5 5 2 2 5 5 4 4 5 1 2 2 1 4 5 2 2 2 3 3 6 5 3 4 9 8 6 5 3 5 5 3 5 6 8 1 3 4 1 1 2 4 5
3 4 6 6 2 2 3 6 5 3 1 3 4 4 4 2 2 5 3 4 3 3 8 7 3 7 7 6 2 5 4 1 5 4 3 7 3 5 3 3 0 1 5 5 4
3 1 3 3 4 3 2 3 5 7 5 2 2 4 6 3 2 4 2 2 5 1 3 5 3 4 6 7 4 6 8 5 7 6 6 8 8 6 7 5 5 4 2 2 5
2 2 4 1 3 4 4 3 4 6 3 3 3 4 4 6 8 7 7 5 5 1 3 2 1 2 4 4 3 6 10 10 8 2 3 4 3 4 2 2 2 4 4 6 6
3 2 4 3 3 3 1 4 2 5 6 4 7 6 5 6 7 5 3 6 8 10 5 4 5 3 5 4 7 6 3 2 1 1 6 5 7 4 2 5 6 5 5 7 5
Wind_Direction
298 300 306 308 310 313 315 316 326 326 319 306 305 310 313 316 313 246 256 218 157 91 32 326 21 347 39 33 3 107 56 307 265 192 126 187 120 285 155 72 32 8 101 149 175
297 304 304 304 307 309 311 318 322 320 315 308 308 307 308 322 274 246 244 212 161 156 1 31 346 349 350 195 263 96 101 262 202 270 137 153 116 150 147 105 73 77 96 153 177
296 301 301 303 306 309 312 317 318 318 313 313 308 309 307 319 347 252 258 205 148 161 152 178 236 29 360 5 254 183 187 218 341 135 112 111 88 69 118 71 178 151 165 181 129
303 305 308 307 310 311 311 311 314 317 313 310 304 312 322 203 8 256 223 120 140 139 192 19 34 23 332 326 264 189 222 157 168 237 99 108 103 49 52 127 137 145 154 131 113
317 314 309 310 313 312 308 307 312 312 304 304 304 323 319 350 254 271 342 98 104 150 224 293 29 96 339 319 340 185 52 123 179 172 109 88 81 115 99 116 110 104 95 95 96
321 317 315 316 313 309 305 302 299 289 290 295 303 315 350 334 279 328 92 147 206 178 195 152 249 198 263 321 55 343 137 127 193 168 127 112 133 93 178 136 115 116 117 121 127
329 327 319 316 311 309 304 298 291 280 279 288 300 318 356 236 327 322 321 245 170 179 271 209 166 49 103 323 330 49 130 64 202 240 146 135 79 144 150 127 109 114 120 121 125
337 325 319 317 313 309 301 292 287 283 275 280 281 235 254 256 295 301 360 309 301 222 194 242 172 126 139 344 11 48 52 46 228 176 262 59 147 154 153 144 127 135 129 130 129
340 330 321 317 313 308 299 292 287 283 246 188 227 95 277 313 292 278 179 259 303 351 10 78 62 92 27 62 16 15 354 354 345 29 101 68 142 171 166 167 141 151 143 142 139
344 329 318 314 312 311 301 277 297 314 109 186 295 8 289 301 297 284 203 63 6 356 9 33 43 48 29 58 160 14 35 55 51 321 73 26 131 162 169 177 150 151 155 157 160
350 331 315 308 303 327 342 12 20 355 58 213 203 235 272 277 289 317 343 11 24 47 30 1 61 59 330 105 101 117 73 19 308 329 76 296 167 175 163 155 147 155 163 170 176
351 338 317 299 304 319 319 95 199 174 314 244 236 267 265 108 297 323 119 75 49 322 36 25 55 90 113 94 87 51 59 339 290 322 19 112 256 105 159 174 173 159 160 174 177
344 335 319 303 305 7 39 241 96 14 96 295 213 206 229 129 216 276 76 134 66 19 23 119 117 134 95 54 63 45 102 309 255 334 358 19 320 97 47 95 107 153 171 170 180
340 333 327 305 29 303 278 270 344 138 63 279 235 257 161 135 360 253 104 129 36 64 74 63 7 105 91 92 120 73 210 269 289 43 258 37 278 10 346 83 143 189 180 198 208
338 332 330 329 229 360 289 325 346 60 47 245 228 75 91 137 169 295 299 49 119 17 86 270 168 60 59 344 102 219 268 323 332 182 89 339 84 282 31 63 61 80 176 213 111
339 331 320 133 32 248 305 325 50 45 268 322 194 168 109 54 183 201 33 45 102 88 40 338 328 101 153 108 64 28 12 34 53 70 57 293 147 310 286 181 150 172 169 147 129
335 319 202 145 229 308 342 43 45 128 319 224 221 161 160 147 205 150 142 26 118 68 356 358 349 317 81 36 9 54 47 346 357 9 221 315 52 238 300 186 171 159 153 135 155
330 316 223 224 72 17 45 51 154 245 259 289 239 120 181 151 223 181 99 64 30 76 101 137 330 350 354 138 187 63 133 149 264 299 282 328 155 254 215 307 79 94 144 161 46
322 336 319 277 163 77 71 79 211 217 270 325 7 86 306 263 148 111 75 110 17 75 136 128 282 324 37 63 100 154 70 176 106 18 30 278 302 339 188 124 75 116 73 37 20
24 351 275 292 133 65 75 229 237 225 327 67 86 46 42 317 120 92 73 350 87 23 151 185 63 327 307 47 35 101 160 52 16 191 298 291 279 233 230 205 151 128 99 34 76
39 24 293 131 70 54 152 234 272 265 271 176 154 110 123 48 43 72 60 358 28 31 68 110 111 289 346 169 185 346 13 55 110 129 176 274 269 244 237 179 161 166 174 180 82
37 10 308 25 64 49 181 203 263 290 304 281 105 109 105 58 44 88 156 183 305 170 71 34 131 216 236 284 295 176 176 124 117 245 210 162 270 340 96 130 148 149 359 133 242
62 266 313 69 141 283 291 287 267 282 233 141 96 121 93 126 98 112 159 39 33 85 156 183 23 22 348 354 1 43 4 109 117 80 204 136 265 77 89 97 118 35 222 270 316
57 4 326 36 58 110 353 292 297 301 313 93 119 90 89 100 71 162 128 19 27 76 66 87 116 149 191 219 199 293 293 324 138 117 227 227 250 198 192 192 146 244 216 272 275
43 256 177 333 341 342 307 295 337 352 348 81 42 157 150 170 134 125 117 106 34 87 70 99 161 170 240 237 249 254 274 258 197 207 176 256 203 184 185 182 180 197 238 236 254
77 62 349 239 293 346 7 21 7 319 278 304 176 198 151 161 179 189 140 179 191 197 108 25 199 164 284 304 284 265 266 260 257 201 203 138 242 154 131 59 216 281 268 251 251
330 345 110 297 344 67 332 305 332 326 283 261 238 120 158 227 187 192 162 159 171 155 157 124 127 91 273 336 332 346 252 267 321 116 139 175 233 160 211 248 227 223 235 243 244